Marshall, MI

11:18 AM EDT on July 26, 2017 (GMT -0400)
Brooks

Weather History for KRMY - March, 2014

Change the Weather History Date:

Friday, March 14, 2014

  Actual Average (KBTL) Record (KBTL)
Temperature  
Mean Temperature 35 °F -  
Max Temperature 47 °F 39 °F 78 °F (2012)
Min Temperature 23 °F 23 °F 9 °F (2005)
Degree Days  
Heating Degree Days 30    
Moisture  
Dew Point 27 °F    
Average Humidity 65    
Maximum Humidity 76    
Minimum Humidity 50    
Precipitation  
Precipitation 0.00 in - - ()
Sea Level Pressure  
Sea Level Pressure 29.69 in    
Wind  
Wind Speed 12 mph (SW)    
Max Wind Speed 23 mph    
Max Gust Speed 32 mph    
Visibility 10 miles    
Events      
Averages and records for this station are not official NWS values.
T = Trace of Precipitation, MM = Missing Value Source: NWS Daily Summary

Daily Weather History Graph

Daily Weather History Graph

Search for Another Location

Airport or City:

Trip Planner

Search our weather history database for the weather conditions in past years. The results will help you decide how hot, cold, wet, or windy it might be!

Date:

Astronomy

Mar. 14, 2014 Rise Set
Actual Time 7:53 AM EDT 7:45 PM EDT
Civil Twilight 7:25 AM EDT 8:13 PM EDT
Nautical Twilight 6:53 AM EDT 8:45 PM EDT
Astronomical Twilight 6:20 AM EDT 9:18 PM EDT
Moon 6:05 PM EDT (3/14) 6:34 AM EDT (3/14)
Length of Visible Light 12h 47m
Length of Day
11h 51m
Waxing Gibbous, 96% of the Moon is Illuminated
Mar 14
Waxing Gibbous
Mar 16
Full
Mar 23
Last Quarter
Mar 30
New
Apr 7
First Quarter

Hourly Weather History & Observations

Time (EDT) Temp. Windchill Dew Point Humidity Pressure Visibility Wind Dir Wind Speed Gust Speed Precip Events Conditions
12:14 AM 23.0 °F 15.8 °F 16.5 °F 76% 29.90 in 10.0 mi South 5.8 mph - N/A   Clear
12:34 AM 23.9 °F 15.8 °F 17.4 °F 76% 29.89 in 10.0 mi South 6.9 mph - N/A   Clear
12:53 AM 24.4 °F 16.5 °F 17.8 °F 76% 29.88 in 10.0 mi SSW 6.9 mph - N/A   Clear
1:14 AM 25.3 °F 16.0 °F 18.5 °F 75% 29.87 in 10.0 mi South 9.2 mph - N/A   Clear
1:34 AM 25.9 °F 16.6 °F 19.0 °F 75% 29.86 in 10.0 mi SSW 9.2 mph - N/A   Clear
1:53 AM 26.2 °F 18.6 °F 19.4 °F 75% 29.86 in 10.0 mi South 6.9 mph - N/A   Clear
2:14 AM 26.4 °F 19.8 °F 19.4 °F 75% 29.85 in 10.0 mi SSW 5.8 mph - N/A   Clear
2:34 AM 27.0 °F 20.5 °F 20.1 °F 75% 29.85 in 10.0 mi South 5.8 mph - N/A   Clear
2:54 AM 27.5 °F 21.1 °F 20.8 °F 76% 29.84 in 10.0 mi SSW 5.8 mph - N/A   Clear
3:14 AM 28.0 °F 20.8 °F 21.2 °F 76% 29.83 in 10.0 mi South 6.9 mph - N/A   Clear
3:34 AM 28.9 °F 21.9 °F 22.1 °F 76% 29.82 in 10.0 mi SSW 6.9 mph - N/A   Clear
3:54 AM 30.0 °F 21.7 °F 23.0 °F 75% 29.81 in 10.0 mi SSW 9.2 mph - N/A   Clear
4:14 AM 31.1 °F 22.4 °F 23.7 °F 74% 29.80 in 10.0 mi SSW 10.4 mph - N/A   Clear
4:34 AM 32.0 °F 23.0 °F 24.3 °F 73% 29.79 in 10.0 mi SSW 11.5 mph - N/A   Clear
4:54 AM 32.0 °F 23.6 °F 24.4 °F 74% 29.79 in 10.0 mi SSW 10.4 mph - N/A   Clear
5:14 AM 31.8 °F 23.3 °F 24.3 °F 74% 29.78 in 10.0 mi SSW 10.4 mph - N/A   Clear
5:33 AM 31.6 °F 23.7 °F 24.3 °F 74% 29.77 in 10.0 mi SSW 9.2 mph - N/A   Clear
5:54 AM 32.0 °F 24.2 °F 24.6 °F 74% 29.76 in 10.0 mi SSW 9.2 mph - N/A   Clear
6:14 AM 32.9 °F 24.7 °F 25.3 °F 74% 29.75 in 10.0 mi SSW 10.4 mph - N/A   Clear
6:33 AM 33.8 °F 25.8 °F 25.7 °F 72% 29.74 in 10.0 mi SSW 10.4 mph 18.4 mph N/A   Clear
6:54 AM 34.3 °F 25.5 °F 26.1 °F 72% 29.73 in 10.0 mi SSW 12.7 mph 24.2 mph N/A   Clear
7:14 AM 34.7 °F 25.9 °F 26.2 °F 71% 29.72 in 10.0 mi SSW 12.7 mph 17.3 mph N/A   Clear
7:54 AM 35.2 °F 26.2 °F 26.4 °F 70% 29.71 in 10.0 mi SSW 13.8 mph 20.7 mph N/A   Clear
8:14 AM 35.8 °F 26.1 °F 26.6 °F 69% 29.71 in 10.0 mi SSW 16.1 mph 24.2 mph N/A   Clear
8:33 AM 36.5 °F 27.4 °F 27.0 °F 68% 29.70 in 10.0 mi SSW 15.0 mph 21.9 mph N/A   Clear
8:54 AM 36.7 °F 27.6 °F 27.1 °F 68% 29.69 in 10.0 mi SSW 15.0 mph 23.0 mph N/A   Clear
9:14 AM 37.6 °F 28.4 °F 27.1 °F 66% 29.69 in 10.0 mi SSW 16.1 mph 21.9 mph N/A   Clear
9:33 AM 37.9 °F 30.0 °F 27.5 °F 66% 29.69 in 10.0 mi SSW 12.7 mph 21.9 mph N/A   Clear
9:54 AM 39.2 °F 31.2 °F 27.5 °F 63% 29.68 in 10.0 mi SSW 13.8 mph 21.9 mph N/A   Clear
10:13 AM 40.5 °F 33.6 °F 28.0 °F 61% 29.67 in 10.0 mi SSW 11.5 mph 23.0 mph N/A   Clear
10:34 AM 41.4 °F 33.6 °F 28.2 °F 60% 29.67 in 10.0 mi SSW 15.0 mph 21.9 mph N/A   Clear
10:54 AM 42.6 °F 34.9 °F 28.4 °F 57% 29.66 in 10.0 mi SSW 16.1 mph 21.9 mph N/A   Clear
11:13 AM 43.5 °F 36.4 °F 28.4 °F 55% 29.66 in 10.0 mi SSW 15.0 mph 24.2 mph N/A   Clear
11:34 AM 44.1 °F 36.5 °F 28.4 °F 54% 29.65 in 10.0 mi SSW 17.3 mph 24.2 mph N/A   Clear
11:54 AM 45.1 °F 38.1 °F 28.6 °F 52% 29.62 in 10.0 mi SSW 16.1 mph 24.2 mph N/A   Clear
12:13 PM 45.5 °F 38.3 °F 28.4 °F 51% 29.60 in 10.0 mi SSW 17.3 mph 27.6 mph N/A   Clear
12:34 PM 46.4 °F 39.2 °F 28.8 °F 50% 29.60 in 10.0 mi SSW 18.4 mph 27.6 mph N/A   Clear
12:54 PM 46.2 °F 38.7 °F 28.8 °F 51% 29.60 in 10.0 mi SW 19.6 mph 32.2 mph N/A   Clear
1:13 PM 45.9 °F 37.8 °F 29.1 °F 52% 29.61 in 10.0 mi SSW 21.9 mph 29.9 mph N/A   Scattered Clouds
1:34 PM 45.9 °F 38.3 °F 29.3 °F 52% 29.60 in 10.0 mi SW 19.6 mph 26.5 mph N/A   Mostly Cloudy
1:54 PM 45.5 °F 37.6 °F 29.5 °F 54% 29.58 in 10.0 mi SW 20.7 mph 29.9 mph N/A   Scattered Clouds
2:13 PM 45.9 °F 38.0 °F 29.8 °F 54% 29.57 in 10.0 mi SSW 20.7 mph 31.1 mph N/A   Scattered Clouds
2:34 PM 46.6 °F - 30.2 °F 53% 29.57 in 10.0 mi SSW 23.0 mph - N/A   Scattered Clouds
2:54 PM 47.1 °F - 30.2 °F 52% 29.57 in 10.0 mi SW 16.1 mph 29.9 mph N/A   Clear
3:14 PM 47.3 °F - 30.7 °F 53% 29.56 in 10.0 mi SW 21.9 mph 32.2 mph N/A   Clear
3:34 PM 46.9 °F - 31.1 °F 54% 29.56 in 10.0 mi SW 17.3 mph - N/A   Clear
3:54 PM 47.5 °F - 31.1 °F 53% 29.55 in 10.0 mi SW 20.7 mph 28.8 mph N/A   Clear
4:14 PM 47.1 °F - 31.1 °F 54% 29.55 in 10.0 mi SW 16.1 mph - N/A   Scattered Clouds
4:34 PM 46.6 °F - 31.6 °F 56% 29.56 in 10.0 mi WSW 15.0 mph 21.9 mph N/A   Mostly Cloudy
4:54 PM 46.8 °F - 31.5 °F 55% 29.56 in 10.0 mi WSW 16.1 mph 26.5 mph N/A   Overcast
5:14 PM 46.6 °F - 32.0 °F 57% 29.56 in 10.0 mi WSW 15.0 mph 27.6 mph N/A   Mostly Cloudy
5:34 PM 46.0 °F 40.6 °F 32.0 °F 58% 29.56 in 10.0 mi WSW 11.5 mph 20.7 mph N/A   Overcast
5:53 PM 46.2 °F 39.8 °F 32.2 °F 58% 29.57 in 10.0 mi WSW 15.0 mph 20.7 mph N/A   Mostly Cloudy
6:14 PM 45.7 °F 39.1 °F 32.2 °F 59% 29.57 in 10.0 mi WSW 15.0 mph 24.2 mph N/A   Scattered Clouds
6:34 PM 45.7 °F 38.3 °F 32.0 °F 59% 29.59 in 10.0 mi WSW 18.4 mph 21.9 mph N/A   Clear
6:53 PM 45.3 °F 39.0 °F 31.8 °F 59% 29.59 in 10.0 mi WSW 13.8 mph - N/A   Clear
7:14 PM 44.6 °F 37.4 °F 31.5 °F 60% 29.61 in 10.0 mi WSW 16.1 mph 19.6 mph N/A   Clear
7:34 PM 44.2 °F 36.7 °F 30.7 °F 59% 29.62 in 10.0 mi West 17.3 mph 28.8 mph N/A   Clear
7:53 PM 43.2 °F 35.3 °F 30.6 °F 61% 29.63 in 10.0 mi West 17.3 mph 24.2 mph N/A   Clear
8:14 PM 42.8 °F 34.5 °F 29.3 °F 59% 29.65 in 10.0 mi West 18.4 mph 27.6 mph N/A   Clear
8:34 PM 41.9 °F 33.7 °F 29.1 °F 61% 29.66 in 10.0 mi West 17.3 mph 24.2 mph N/A   Scattered Clouds
8:53 PM 41.0 °F 32.8 °F 29.3 °F 63% 29.67 in 10.0 mi West 16.1 mph 24.2 mph N/A   Scattered Clouds
9:14 PM 40.5 °F 32.1 °F 30.0 °F 66% 29.68 in 10.0 mi West 16.1 mph 27.6 mph N/A   Overcast
9:33 PM 39.7 °F 31.2 °F 30.2 °F 69% 29.70 in 10.0 mi West 16.1 mph 26.5 mph N/A   Overcast
9:54 PM 39.2 °F 28.7 °F 30.0 °F 70% 29.71 in 10.0 mi West 23.0 mph 27.6 mph N/A   Overcast
10:14 PM 38.3 °F 27.8 °F 29.5 °F 71% 29.71 in 10.0 mi West 21.9 mph 32.2 mph N/A   Overcast
10:33 PM 37.9 °F 27.9 °F 29.3 °F 71% 29.73 in 10.0 mi West 19.6 mph 32.2 mph N/A   Overcast
10:54 PM 37.8 °F 29.0 °F 29.7 °F 73% 29.73 in 10.0 mi West 15.0 mph 26.5 mph N/A   Overcast
11:14 PM 37.6 °F 28.1 °F 29.5 °F 73% 29.73 in 10.0 mi West 17.3 mph 24.2 mph N/A   Overcast
11:33 PM 37.4 °F 28.9 °F 29.3 °F 73% 29.74 in 10.0 mi West 13.8 mph - N/A   Overcast
11:54 PM 37.2 °F 29.6 °F 29.3 °F 73% 29.75 in 10.0 mi WSW 11.5 mph 20.7 mph N/A   Overcast